| time (UTC) | temp F | wind direction | speed MPH | gust MPH | rain 1hr in | rain 24hr in | rain mn in | humidity % | barometer mb |
| 20260506073500 | 27 | 106 | 2.0 | 3.0 | 0.00 | 0.00 | 0.00 | 65 | 1013.8 |
| 20260506072957 | 27 | 6 | 0.0 | 2.0 | 0.00 | 0.00 | 0.00 | 66 | 1013.8 |
| 20260506072454 | 27 | 66 | 0.0 | 2.0 | 0.00 | 0.00 | 0.00 | 67 | 1013.7 |
| 20260506071952 | 28 | 90 | 1.0 | 3.0 | 0.00 | 0.00 | 0.00 | 65 | 1013.8 |
| 20260506071450 | 28 | 90 | 2.0 | 5.0 | 0.00 | 0.00 | 0.00 | 62 | 1013.7 |
| 20260506070947 | 29 | 86 | 5.0 | 6.0 | 0.00 | 0.00 | 0.00 | 62 | 1013.7 |
| 20260506070444 | 29 | 0 | 3.0 | 4.0 | 0.00 | 0.00 | 0.00 | 61 | 1013.6 |
| 20260506062422 | 30 | 0 | 4.0 | 6.0 | 0.00 | 0.00 | 0.00 | 64 | 1013.6 |
| 20260506061917 | 31 | 356 | 0.0 | 3.0 | 0.00 | 0.00 | 0.00 | 62 | 1013.7 |
| 20260506061414 | 31 | 340 | 0.0 | 3.0 | 0.00 | 0.00 | 0.00 | 62 | 1013.4 |
| 20260506060912 | 31 | 0 | 2.0 | 3.0 | 0.00 | 0.00 | 0.00 | 61 | 1013.7 |
| 20260506060410 | 31 | 290 | 3.0 | 5.0 | 0.00 | 0.00 | 0.00 | 59 | 1013.6 |
| 20260506051342 | 36 | 334 | 0.0 | 5.0 | 0.00 | 0.00 | 0.00 | 49 | 1013.3 |
| 20260506050839 | 37 | 307 | 2.0 | 9.0 | 0.00 | 0.00 | 0.00 | 47 | 1013.3 |
| 20260506050336 | 37 | 331 | 3.0 | 5.0 | 0.00 | 0.00 | 0.00 | 47 | 1013.1 |
| 20260506044827 | 38 | 5 | 10.0 | 15.0 | 0.00 | 0.00 | 0.00 | 46 | 1013.2 |
| 20260506044325 | 38 | 347 | 3.0 | 10.0 | 0.00 | 0.00 | 0.00 | 48 | 1013.0 |
| 20260506043821 | 37 | 329 | 4.0 | 9.0 | 0.00 | 0.00 | 0.00 | 49 | 1013.1 |
| 20260506043319 | 37 | 308 | 3.0 | 5.0 | 0.00 | 0.00 | 0.00 | 49 | 1013.1 |
| 20260506042817 | 38 | 279 | 2.0 | 7.0 | 0.00 | 0.00 | 0.00 | 49 | 1013.0 |
| 20260506042316 | 38 | 294 | 0.0 | 3.0 | 0.00 | 0.00 | 0.00 | 47 | 1012.6 |
| 20260506041814 | 38 | 300 | 0.0 | 3.0 | 0.00 | 0.00 | 0.00 | 46 | 1012.7 |
| 20260506041311 | 39 | 270 | 1.0 | 9.0 | 0.00 | 0.00 | 0.00 | 44 | 1012.6 |
| 20260506040808 | 39 | 325 | 1.0 | 3.0 | 0.00 | 0.00 | 0.00 | 46 | 1012.6 |
| 20260506040305 | 39 | 305 | 2.0 | 6.0 | 0.00 | 0.00 | 0.00 | 43 | 1012.6 |
| 20260506035801 | 39 | 264 | 2.0 | 3.0 | 0.00 | 0.00 | 0.00 | 46 | 1012.6 |
| 20260506035259 | 39 | 279 | 2.0 | 6.0 | 0.00 | 0.00 | 0.00 | 46 | 1012.2 |
| 20260506034756 | 39 | 331 | 3.0 | 7.0 | 0.00 | 0.00 | 0.00 | 46 | 1012.2 |
| 20260506034253 | 39 | 286 | 0.0 | 6.0 | 0.00 | 0.00 | 0.00 | 45 | 1012.1 |
| 20260506033750 | 40 | 342 | 0.0 | 10.0 | 0.00 | 0.00 | 0.00 | 47 | 1012.1 |
| 20260506033247 | 39 | 71 | 2.0 | 10.0 | 0.00 | 0.00 | 0.00 | 49 | 1012.1 |
| 20260506032744 | 40 | 0 | 4.0 | 13.0 | 0.00 | 0.00 | 0.00 | 48 | 1012.2 |
| 20260506032241 | 39 | 344 | 3.0 | 5.0 | 0.00 | 0.00 | 0.00 | 50 | 1012.1 |
| 20260506031737 | 39 | 250 | 4.0 | 5.0 | 0.00 | 0.00 | 0.00 | 53 | 1011.7 |
| 20260506031235 | 39 | 247 | 4.0 | 5.0 | 0.00 | 0.00 | 0.00 | 52 | 1012.0 |
| 20260506030733 | 39 | 281 | 3.0 | 3.0 | 0.00 | 0.00 | 0.00 | 52 | 1011.9 |
| 20260506030230 | 39 | 145 | 1.0 | 2.0 | 0.00 | 0.00 | 0.00 | 50 | 1011.5 |
| 20260506025721 | 39 | 14 | 0.0 | 4.0 | 0.00 | 0.00 | 0.00 | 48 | 1012.0 |
| 20260506025217 | 40 | 21 | 3.0 | 4.0 | 0.00 | 0.00 | 0.00 | 48 | 1011.7 |
| 20260506024715 | 39 | 54 | 10.0 | 12.0 | 0.00 | 0.00 | 0.00 | 48 | 1011.5 |
| 20260506024211 | 39 | 5 | 6.0 | 18.0 | 0.00 | 0.00 | 0.00 | 51 | 1011.6 |
| 20260506023707 | 39 | 7 | 5.0 | 21.0 | 0.00 | 0.00 | 0.00 | 52 | 1011.5 |
| 20260506023205 | 39 | 348 | 12.0 | 27.0 | 0.00 | 0.00 | 0.00 | 53 | 1011.4 |
| 20260506022701 | 40 | 28 | 9.0 | 23.0 | 0.00 | 0.00 | 0.00 | 52 | 1011.5 |
| 20260506022159 | 40 | 0 | 13.0 | 27.0 | 0.00 | 0.00 | 0.00 | 53 | 1011.7 |
| 20260506021657 | 40 | 353 | 17.0 | 25.0 | 0.00 | 0.00 | 0.00 | 54 | 1011.1 |
| 20260506021154 | 41 | 353 | 18.0 | 29.0 | 0.00 | 0.00 | 0.00 | 53 | 1011.0 |
| 20260506020650 | 41 | 23 | 7.0 | 18.0 | 0.00 | 0.00 | 0.00 | 51 | 1010.7 |
| 20260506020148 | 42 | 5 | 19.0 | 21.0 | 0.00 | 0.00 | 0.00 | 49 | 1010.3 |
| 20260506015646 | 42 | 15 | 7.0 | 29.0 | 0.00 | 0.00 | 0.00 | 49 | 1010.4 |
| 20260506015143 | 43 | 18 | 17.0 | 22.0 | 0.00 | 0.00 | 0.00 | 48 | 1010.4 |
| 20260506014640 | 43 | 11 | 6.0 | 16.0 | 0.00 | 0.00 | 0.00 | 49 | 1010.2 |
| 20260506014136 | 43 | 0 | 13.0 | 25.0 | 0.00 | 0.00 | 0.00 | 49 | 1010.2 |
| 20260506013634 | 44 | 2 | 8.0 | 21.0 | 0.00 | 0.00 | 0.00 | 48 | 1009.9 |
| 20260506013131 | 45 | 13 | 12.0 | 18.0 | 0.00 | 0.00 | 0.00 | 48 | 1010.0 |
| 20260506012627 | 45 | 358 | 12.0 | 22.0 | 0.00 | 0.00 | 0.00 | 46 | 1009.9 |
| 20260506012124 | 45 | 3 | 8.0 | 18.0 | 0.00 | 0.00 | 0.00 | 47 | 1009.8 |
| 20260506011622 | 46 | 19 | 11.0 | 17.0 | 0.00 | 0.00 | 0.00 | 45 | 1009.7 |
| 20260506011118 | 45 | 5 | 11.0 | 19.0 | 0.00 | 0.00 | 0.00 | 45 | 1009.7 |
| 20260506010617 | 46 | 354 | 13.0 | 18.0 | 0.00 | 0.00 | 0.00 | 46 | 1009.6 |
| 20260506010113 | 46 | 352 | 10.0 | 17.0 | 0.00 | 0.00 | 0.00 | 47 | 1009.6 |
| 20260506005610 | 47 | 0 | 10.0 | 16.0 | 0.00 | 0.00 | 0.00 | 46 | 1009.3 |
| 20260506005107 | 46 | 358 | 17.0 | 21.0 | 0.00 | 0.00 | 0.00 | 47 | 1009.3 |
| 20260506004604 | 46 | 23 | 8.0 | 17.0 | 0.00 | 0.00 | 0.00 | 47 | 1009.6 |
| 20260506004100 | 48 | 18 | 11.0 | 16.0 | 0.00 | 0.00 | 0.00 | 47 | 1009.3 |
| 20260506003556 | 47 | 67 | 4.0 | 22.0 | 0.00 | 0.00 | 0.00 | 48 | 1009.4 |
| 20260506003053 | 48 | 17 | 13.0 | 23.0 | 0.00 | 0.00 | 0.00 | 45 | 1009.4 |
| 20260506002549 | 48 | 5 | 16.0 | 20.0 | 0.00 | 0.00 | 0.00 | 44 | 1009.6 |
| 20260506002045 | 49 | 46 | 11.0 | 19.0 | 0.00 | 0.00 | 0.00 | 45 | 1009.4 |
| 20260506001541 | 49 | 10 | 8.0 | 23.0 | 0.00 | 0.00 | 0.00 | 46 | 1009.3 |
| 20260506001039 | 49 | 351 | 9.0 | 20.0 | 0.00 | 0.00 | 0.00 | 44 | 1009.4 |
| 20260506000536 | 50 | 340 | 9.0 | 18.0 | 0.00 | 0.00 | 0.00 | 43 | 1009.2 |
| 20260506000033 | 49 | 22 | 10.0 | 24.0 | 0.00 | 0.00 | 0.00 | 43 | 1009.3 |
| 20260505235531 | 50 | 336 | 7.0 | 19.0 | 0.00 | 0.00 | 0.00 | 44 | 1009.2 |
| 20260505235028 | 50 | 5 | 15.0 | 28.0 | 0.00 | 0.00 | 0.00 | 42 | 1009.2 |
| 20260505234525 | 51 | 350 | 3.0 | 23.0 | 0.00 | 0.00 | 0.00 | 44 | 1009.1 |
| 20260505234021 | 50 | 5 | 10.0 | 15.0 | 0.00 | 0.00 | 0.00 | 42 | 1009.1 |
| 20260505233519 | 49 | 355 | 11.0 | 22.0 | 0.00 | 0.00 | 0.00 | 42 | 1009.1 |
| 20260505233017 | 49 | 0 | 7.0 | 17.0 | 0.00 | 0.00 | 0.00 | 41 | 1009.3 |
| 20260505232514 | 49 | 355 | 12.0 | 21.0 | 0.00 | 0.00 | 0.00 | 41 | 1009.2 |
| 20260505232011 | 50 | 0 | 3.0 | 6.0 | 0.00 | 0.00 | 0.00 | 43 | 1009.1 |
| 20260505231508 | 49 | 355 | 6.0 | 9.0 | 0.00 | 0.00 | 0.00 | 42 | 1009.3 |
| 20260505231007 | 49 | 352 | 5.0 | 16.0 | 0.00 | 0.00 | 0.00 | 43 | 1009.2 |
| 20260505230504 | 49 | 0 | 8.0 | 18.0 | 0.00 | 0.00 | 0.00 | 43 | 1009.1 |
| 20260505230000 | 50 | 266 | 3.0 | 3.0 | 0.00 | 0.00 | 0.00 | 40 | 1009.4 |
| 20260505225457 | 51 | 322 | 3.0 | 7.0 | 0.00 | 0.00 | 0.00 | 38 | 1009.2 |
| 20260505224953 | 52 | 335 | 5.0 | 16.0 | 0.00 | 0.00 | 0.00 | 39 | 1009.1 |
| 20260505224450 | 54 | 345 | 7.0 | 10.0 | 0.00 | 0.00 | 0.00 | 38 | 1009.1 |
| 20260505223947 | 52 | 12 | 11.0 | 17.0 | 0.00 | 0.00 | 0.00 | 39 | 1009.1 |
| 20260505223444 | 52 | 353 | 6.0 | 19.0 | 0.00 | 0.00 | 0.00 | 41 | 1009.2 |
| 20260505222940 | 52 | 356 | 6.0 | 19.0 | 0.00 | 0.00 | 0.00 | 42 | 1009.1 |
| 20260505222437 | 52 | 358 | 3.0 | 17.0 | 0.00 | 0.00 | 0.00 | 41 | 1009.0 |
| 20260505221933 | 51 | 356 | 12.0 | 24.0 | 0.00 | 0.00 | 0.00 | 41 | 1009.3 |
| 20260505221430 | 53 | 345 | 8.0 | 22.0 | 0.00 | 0.00 | 0.00 | 36 | 1009.1 |
| 20260505220927 | 55 | 326 | 6.0 | 16.0 | 0.00 | 0.00 | 0.00 | 38 | 1009.0 |
| 20260505220424 | 55 | 309 | 7.0 | 17.0 | 0.00 | 0.00 | 0.00 | 37 | 1009.0 |
| 20260505215922 | 55 | 348 | 2.0 | 24.0 | 0.00 | 0.00 | 0.00 | 35 | 1008.8 |
| 20260505215420 | 55 | 297 | 9.0 | 22.0 | 0.00 | 0.00 | 0.00 | 36 | 1008.7 |
| 20260505214918 | 55 | 282 | 3.0 | 12.0 | 0.00 | 0.00 | 0.00 | 33 | 1008.8 |
| 20260505214415 | 56 | 276 | 10.0 | 17.0 | 0.00 | 0.00 | 0.00 | 36 | 1008.8 |
| 20260505213912 | 55 | 311 | 10.0 | 24.0 | 0.00 | 0.00 | 0.00 | 36 | 1008.8 |
| 20260505213410 | 55 | 296 | 21.0 | 30.0 | 0.00 | 0.00 | 0.00 | 37 | 1008.8 |
| 20260505212906 | 55 | 289 | 12.0 | 23.0 | 0.00 | 0.00 | 0.00 | 37 | 1009.0 |
| 20260505212403 | 55 | 277 | 11.0 | 18.0 | 0.00 | 0.00 | 0.00 | 36 | 1008.8 |
| 20260505211859 | 56 | 310 | 2.0 | 13.0 | 0.00 | 0.00 | 0.00 | 38 | 1008.6 |
| 20260505211357 | 55 | 331 | 6.0 | 19.0 | 0.00 | 0.00 | 0.00 | 37 | 1008.6 |
| 20260505210853 | 53 | 284 | 11.0 | 21.0 | 0.00 | 0.00 | 0.00 | 37 | 1008.8 |
| 20260505210350 | 56 | 296 | 10.0 | 12.0 | 0.00 | 0.00 | 0.00 | 40 | 1008.7 |
| 20260505205847 | 54 | 262 | 7.0 | 23.0 | 0.00 | 0.00 | 0.00 | 39 | 1008.6 |
| 20260505205345 | 55 | 303 | 14.0 | 20.0 | 0.00 | 0.00 | 0.00 | 38 | 1008.7 |
| 20260505204842 | 55 | 297 | 3.0 | 18.0 | 0.00 | 0.00 | 0.00 | 41 | 1009.0 |
| 20260505204340 | 56 | 324 | 4.0 | 23.0 | 0.00 | 0.00 | 0.00 | 38 | 1008.8 |
| 20260505203836 | 53 | 248 | 7.0 | 9.0 | 0.00 | 0.00 | 0.00 | 37 | 1009.0 |
| 20260505203333 | 54 | 37 | 2.0 | 10.0 | 0.00 | 0.00 | 0.00 | 40 | 1009.0 |
| 20260505202829 | 56 | 280 | 6.0 | 7.0 | 0.00 | 0.00 | 0.00 | 39 | 1009.0 |
| 20260505202325 | 55 | 260 | 6.0 | 18.0 | 0.00 | 0.00 | 0.00 | 36 | 1009.0 |
| 20260505201822 | 56 | 284 | 10.0 | 15.0 | 0.00 | 0.00 | 0.00 | 39 | 1008.8 |
| 20260505201320 | 56 | 286 | 5.0 | 22.0 | 0.00 | 0.00 | 0.00 | 42 | 1009.0 |
| 20260505200818 | 55 | 320 | 3.0 | 10.0 | 0.00 | 0.00 | 0.00 | 38 | 1009.0 |
| 20260505200315 | 54 | 343 | 4.0 | 15.0 | 0.00 | 0.00 | 0.00 | 40 | 1008.8 |
| 20260505195810 | 55 | 288 | 12.0 | 19.0 | 0.00 | 0.00 | 0.00 | 36 | 1009.1 |
| 20260505195308 | 53 | 279 | 10.0 | 17.0 | 0.00 | 0.00 | 0.00 | 38 | 1008.8 |
| 20260505194805 | 52 | 222 | 3.0 | 16.0 | 0.00 | 0.00 | 0.00 | 36 | 1009.0 |
| 20260505194302 | 56 | 332 | 3.0 | 13.0 | 0.00 | 0.00 | 0.00 | 39 | 1008.8 |
| 20260505193757 | 54 | 285 | 5.0 | 8.0 | 0.00 | 0.00 | 0.00 | 37 | 1009.0 |
| 20260505193255 | 55 | 254 | 2.0 | 17.0 | 0.00 | 0.00 | 0.00 | 38 | 1009.0 |
| 20260505192753 | 55 | 41 | 2.0 | 11.0 | 0.00 | 0.00 | 0.00 | 38 | 1009.0 |
| 20260505192251 | 54 | 359 | 6.0 | 14.0 | 0.00 | 0.00 | 0.00 | 42 | 1008.8 |
| 20260505191748 | 53 | 328 | 11.0 | 11.0 | 0.00 | 0.00 | 0.00 | 38 | 1008.8 |
| 20260505191247 | 55 | 309 | 3.0 | 9.0 | 0.00 | 0.00 | 0.00 | 38 | 1009.0 |
| 20260505190742 | 54 | 250 | 5.0 | 13.0 | 0.00 | 0.00 | 0.00 | 43 | 1009.0 |
| 20260505190237 | 54 | 298 | 8.0 | 13.0 | 0.00 | 0.00 | 0.00 | 39 | 1009.0 |
| 20260505185734 | 55 | 295 | 10.0 | 15.0 | 0.00 | 0.00 | 0.00 | 40 | 1009.0 |
| 20260505185231 | 52 | 0 | 6.0 | 16.0 | 0.00 | 0.00 | 0.00 | 38 | 1009.1 |
| 20260505184727 | 55 | 348 | 8.0 | 11.0 | 0.00 | 0.00 | 0.00 | 41 | 1009.1 |
| 20260505184224 | 55 | 334 | 7.0 | 14.0 | 0.00 | 0.00 | 0.00 | 41 | 1008.8 |
| 20260505183721 | 53 | 291 | 11.0 | 13.0 | 0.00 | 0.00 | 0.00 | 42 | 1008.7 |
| 20260505183219 | 55 | 0 | 5.0 | 11.0 | 0.00 | 0.00 | 0.00 | 40 | 1009.0 |
| 20260505182714 | 54 | 292 | 7.0 | 17.0 | 0.00 | 0.00 | 0.00 | 42 | 1008.8 |
| 20260505182212 | 55 | 346 | 2.0 | 13.0 | 0.00 | 0.00 | 0.00 | 41 | 1008.7 |
| 20260505181708 | 55 | 304 | 5.0 | 12.0 | 0.00 | 0.00 | 0.00 | 39 | 1008.7 |
| 20260505181206 | 55 | 307 | 5.0 | 10.0 | 0.00 | 0.00 | 0.00 | 38 | 1008.8 |
| 20260505180702 | 54 | 307 | 4.0 | 8.0 | 0.00 | 0.00 | 0.00 | 42 | 1009.0 |
| 20260505180159 | 55 | 295 | 2.0 | 8.0 | 0.00 | 0.00 | 0.00 | 40 | 1009.1 |
| 20260505175655 | 53 | 206 | 3.0 | 4.0 | 0.00 | 0.00 | 0.00 | 38 | 1009.0 |
| 20260505175151 | 53 | 295 | 6.0 | 9.0 | 0.00 | 0.00 | 0.00 | 37 | 1009.1 |
| 20260505174648 | 53 | 281 | 0.0 | 7.0 | 0.00 | 0.00 | 0.00 | 38 | 1009.0 |
| 20260505174144 | 53 | 238 | 4.0 | 11.0 | 0.00 | 0.00 | 0.00 | 42 | 1009.1 |
| 20260505173641 | 52 | 208 | 2.0 | 7.0 | 0.00 | 0.00 | 0.00 | 42 | 1009.1 |
| 20260505173138 | 52 | 141 | 2.0 | 7.0 | 0.00 | 0.00 | 0.00 | 40 | 1009.1 |
| 20260505172635 | 52 | 159 | 4.0 | 5.0 | 0.00 | 0.00 | 0.00 | 39 | 1009.3 |
| 20260505172131 | 53 | 270 | 2.0 | 5.0 | 0.00 | 0.00 | 0.00 | 44 | 1009.0 |
| 20260505171626 | 52 | 208 | 2.0 | 5.0 | 0.00 | 0.00 | 0.00 | 40 | 1009.1 |
| 20260505171124 | 51 | 359 | 5.0 | 7.0 | 0.00 | 0.00 | 0.00 | 43 | 1009.2 |
| 20260505170621 | 53 | 343 | 3.0 | 5.0 | 0.00 | 0.00 | 0.00 | 44 | 1009.1 |
| 20260505170117 | 52 | 2 | 4.0 | 6.0 | 0.00 | 0.00 | 0.00 | 42 | 1009.2 |
| 20260505165612 | 52 | 294 | 2.0 | 5.0 | 0.00 | 0.00 | 0.00 | 44 | 1009.3 |
| 20260505165108 | 52 | 275 | 2.0 | 10.0 | 0.00 | 0.00 | 0.00 | 44 | 1009.2 |
| 20260505164604 | 52 | 270 | 0.0 | 4.0 | 0.00 | 0.00 | 0.00 | 45 | 1009.4 |
| 20260505164102 | 52 | 288 | 5.0 | 40.0 | 0.00 | 0.00 | 0.00 | 49 | 1009.2 |
| 20260505163600 | 51 | 188 | 4.0 | 9.0 | 0.00 | 0.00 | 0.00 | 44 | 1009.4 |
| 20260505163057 | 50 | 212 | 1.0 | 5.0 | 0.00 | 0.00 | 0.00 | 46 | 1009.6 |
| 20260505162549 | 51 | 131 | 2.0 | 7.0 | 0.00 | 0.00 | 0.00 | 51 | 1009.6 |
| 20260505162046 | 50 | 190 | 4.0 | 4.0 | 0.00 | 0.00 | 0.00 | 51 | 1009.4 |
| 20260505161543 | 48 | 286 | 0.0 | 7.0 | 0.00 | 0.00 | 0.00 | 54 | 1009.6 |
| 20260505161041 | 49 | 200 | 5.0 | 9.0 | 0.00 | 0.00 | 0.00 | 63 | 1009.6 |
| 20260505160538 | 48 | 176 | 2.0 | 7.0 | 0.00 | 0.00 | 0.00 | 60 | 1009.3 |
| 20260505153015 | 48 | 276 | 3.0 | 4.0 | 0.00 | 0.00 | 0.00 | 57 | 1009.6 |
| 20260505152512 | 47 | 194 | 1.0 | 4.0 | 0.00 | 0.00 | 0.00 | 59 | 1009.7 |
| 20260505152007 | 47 | 239 | 2.0 | 5.0 | 0.00 | 0.00 | 0.00 | 60 | 1009.7 |
| 20260505151502 | 46 | 255 | 5.0 | 5.0 | 0.00 | 0.00 | 0.00 | 62 | 1009.7 |
| 20260505151000 | 46 | 130 | 2.0 | 5.0 | 0.00 | 0.00 | 0.00 | 62 | 1009.7 |
| 20260505150456 | 46 | 225 | 2.0 | 5.0 | 0.00 | 0.00 | 0.00 | 63 | 1009.7 |
| 20260505140427 | 42 | 147 | 6.0 | 7.0 | 0.00 | 0.00 | 0.00 | 69 | 1009.7 |
| 20260505124840 | 36 | 153 | 3.0 | 9.0 | 0.00 | 0.00 | 0.00 | 78 | 1009.3 |
| 20260505124337 | 36 | 161 | 4.0 | 6.0 | 0.00 | 0.00 | 0.00 | 78 | 1009.3 |
| 20260505123833 | 35 | 134 | 7.0 | 8.0 | 0.00 | 0.00 | 0.00 | 79 | 1009.2 |
| 20260505123330 | 35 | 131 | 6.0 | 12.0 | 0.00 | 0.00 | 0.00 | 78 | 1009.0 |
| 20260505122826 | 36 | 154 | 5.0 | 9.0 | 0.00 | 0.00 | 0.00 | 77 | 1009.1 |
| 20260505122323 | 36 | 135 | 7.0 | 9.0 | 0.00 | 0.00 | 0.00 | 76 | 1009.0 |
| 20260505121820 | 37 | 142 | 7.0 | 9.0 | 0.00 | 0.00 | 0.00 | 75 | 1009.0 |
| 20260505121317 | 38 | 198 | 7.0 | 10.0 | 0.00 | 0.00 | 0.00 | 73 | 1009.2 |
| 20260505120813 | 38 | 180 | 3.0 | 5.0 | 0.00 | 0.00 | 0.00 | 73 | 1009.0 |
| 20260505120309 | 38 | 212 | 1.0 | 4.0 | 0.00 | 0.00 | 0.00 | 74 | 1009.0 |
| 20260505115808 | 39 | 171 | 3.0 | 8.0 | 0.00 | 0.00 | 0.00 | 74 | 1008.8 |
| 20260505115306 | 39 | 150 | 5.0 | 8.0 | 0.00 | 0.00 | 0.00 | 72 | 1009.0 |
| 20260505114803 | 40 | 147 | 4.0 | 11.0 | 0.00 | 0.00 | 0.00 | 71 | 1009.0 |
| 20260505114259 | 40 | 157 | 8.0 | 11.0 | 0.00 | 0.00 | 0.00 | 71 | 1009.1 |
| 20260505113756 | 40 | 129 | 6.0 | 13.0 | 0.00 | 0.00 | 0.00 | 71 | 1008.8 |
| 20260505113252 | 39 | 123 | 10.0 | 11.0 | 0.00 | 0.00 | 0.00 | 72 | 1008.8 |
| 20260505112748 | 39 | 122 | 5.0 | 10.0 | 0.00 | 0.00 | 0.00 | 73 | 1009.0 |
| 20260505112246 | 39 | 143 | 7.0 | 13.0 | 0.00 | 0.00 | 0.00 | 74 | 1009.1 |
| 20260505111741 | 39 | 157 | 7.0 | 11.0 | 0.00 | 0.00 | 0.00 | 74 | 1009.1 |
| 20260505111237 | 39 | 139 | 5.0 | 9.0 | 0.00 | 0.00 | 0.00 | 75 | 1009.2 |
| 20260505110733 | 39 | 167 | 6.0 | 9.0 | 0.00 | 0.00 | 0.00 | 76 | 1009.1 |
| 20260505110231 | 39 | 117 | 4.0 | 9.0 | 0.00 | 0.00 | 0.00 | 75 | 1009.2 |
| 20260505102207 | 41 | 159 | 5.0 | 9.0 | 0.00 | 0.00 | 0.00 | 74 | 1008.8 |
| 20260505101705 | 42 | 166 | 7.0 | 12.0 | 0.00 | 0.00 | 0.00 | 74 | 1008.8 |
| 20260505101201 | 42 | 168 | 9.0 | 20.0 | 0.00 | 0.00 | 0.00 | 73 | 1008.7 |
| 20260505100657 | 42 | 182 | 13.0 | 17.0 | 0.00 | 0.00 | 0.00 | 74 | 1009.0 |
| 20260505100154 | 42 | 203 | 8.0 | 10.0 | 0.00 | 0.00 | 0.00 | 73 | 1008.8 |
| 20260505095650 | 42 | 211 | 4.0 | 11.0 | 0.00 | 0.00 | 0.00 | 74 | 1009.0 |
| 20260505095148 | 42 | 168 | 3.0 | 9.0 | 0.00 | 0.00 | 0.00 | 74 | 1009.0 |
| 20260505094643 | 42 | 199 | 5.0 | 13.0 | 0.00 | 0.00 | 0.00 | 74 | 1008.6 |
| 20260505094140 | 42 | 182 | 6.0 | 13.0 | 0.00 | 0.00 | 0.00 | 74 | 1008.6 |
| 20260505093636 | 42 | 206 | 6.0 | 11.0 | 0.00 | 0.00 | 0.00 | 75 | 1008.7 |
| 20260505093134 | 42 | 191 | 5.0 | 14.0 | 0.00 | 0.00 | 0.00 | 75 | 1008.7 |
| 20260505092630 | 42 | 200 | 6.0 | 10.0 | 0.00 | 0.00 | 0.00 | 75 | 1008.8 |
| 20260505092130 | 42 | 165 | 7.0 | 12.0 | 0.00 | 0.00 | 0.00 | 75 | 1009.1 |
| 20260505091626 | 42 | 178 | 3.0 | 11.0 | 0.00 | 0.00 | 0.00 | 75 | 1009.2 |
| 20260505091124 | 42 | 172 | 3.0 | 9.0 | 0.00 | 0.00 | 0.00 | 76 | 1009.0 |
| 20260505090621 | 42 | 206 | 3.0 | 10.0 | 0.00 | 0.00 | 0.00 | 76 | 1008.7 |
| 20260505090119 | 42 | 181 | 5.0 | 10.0 | 0.00 | 0.00 | 0.00 | 75 | 1009.0 |
| 20260505085616 | 42 | 180 | 5.0 | 17.0 | 0.00 | 0.00 | 0.00 | 74 | 1009.1 |
| 20260505085115 | 42 | 147 | 6.0 | 11.0 | 0.00 | 0.00 | 0.00 | 75 | 1008.8 |
| 20260505084612 | 42 | 197 | 5.0 | 12.0 | 0.00 | 0.00 | 0.00 | 75 | 1008.8 |
| 20260505084110 | 42 | 160 | 4.0 | 9.0 | 0.00 | 0.00 | 0.00 | 75 | 1008.8 |
| 20260505083608 | 43 | 164 | 4.0 | 9.0 | 0.00 | 0.00 | 0.00 | 74 | 1008.7 |
| 20260505083104 | 43 | 167 | 8.0 | 11.0 | 0.00 | 0.00 | 0.00 | 73 | 1009.0 |
| 20260505082559 | 43 | 179 | 6.0 | 11.0 | 0.00 | 0.00 | 0.00 | 73 | 1008.7 |
| 20260505082057 | 43 | 195 | 5.0 | 9.0 | 0.00 | 0.00 | 0.00 | 74 | 1008.7 |
| 20260505081553 | 43 | 165 | 6.0 | 9.0 | 0.00 | 0.00 | 0.00 | 75 | 1008.6 |
| 20260505081050 | 43 | 161 | 6.0 | 9.0 | 0.00 | 0.00 | 0.00 | 76 | 1008.7 |
| 20260505080546 | 43 | 170 | 4.0 | 6.0 | 0.00 | 0.00 | 0.00 | 76 | 1009.1 |
| 20260505080043 | 43 | 156 | 3.0 | 6.0 | 0.00 | 0.00 | 0.00 | 75 | 1009.1 |